Estación de Contra Coronel

Ultimos registro cada 15 minutos 42
Estación Fecha / Hora Temperatura Humedad Lluvia Velocidad Dirección Radiación Presion
42 Contra Coronel 02-05-2026 10:15 3,3 100 0 0 209 189,4 1019
41 Contra Coronel 02-05-2026 10:00 2,7 100 0 0,3 191 145,6 1019
40 Contra Coronel 02-05-2026 09:45 2,4 100 0 0 153 170,6 1019,1
39 Contra Coronel 02-05-2026 09:30 1,8 100 0 0,3 147 124,4 1019,1
38 Contra Coronel 02-05-2026 09:15 1,6 100 0 1 185 135,6 1019,2
37 Contra Coronel 02-05-2026 09:00 1,3 100 0 0 265 95,6 1019,6
36 Contra Coronel 02-05-2026 08:45 1,2 100 0 0,3 260 68,1 1019,7
35 Contra Coronel 02-05-2026 08:30 1 100 0 0,3 211 46,9 1019,8
34 Contra Coronel 02-05-2026 08:15 0,8 100 0 0 251 24,4 1019,9
33 Contra Coronel 02-05-2026 08:00 0,7 100 0 0,3 183 11,9 1019,8
32 Contra Coronel 02-05-2026 07:45 0,6 100 0 0,3 194 5,6 1020
31 Contra Coronel 02-05-2026 07:30 0,8 100 0 0 220 0,6 1020,1
30 Contra Coronel 02-05-2026 07:15 0,9 100 0 0,3 258 0,6 1020,2
29 Contra Coronel 02-05-2026 07:00 1 100 0 0 326 0,6 1020,2
28 Contra Coronel 02-05-2026 06:45 0,9 100 0 0 336 0,6 1020,3
27 Contra Coronel 02-05-2026 06:30 0,7 100 0 0 336 0,6 1020,5
26 Contra Coronel 02-05-2026 06:15 0,4 100 0 0 336 0,6 1020,9
25 Contra Coronel 02-05-2026 06:00 0,5 100 0 0 336 0,6 1020,9
24 Contra Coronel 02-05-2026 05:45 0,3 100 0 0 336 0,6 1021,1
23 Contra Coronel 02-05-2026 05:30 0,2 99,9 0 0 336 0,6 1021,2
22 Contra Coronel 02-05-2026 05:15 0,3 100 0 0 336 0,6 1021,2
21 Contra Coronel 02-05-2026 05:00 0 100 0 0 336 0,6 1021,4
20 Contra Coronel 02-05-2026 04:45 -0,4 100 0 0 336 0,6 1021,6
19 Contra Coronel 02-05-2026 04:30 -0,8 100 0 0 336 0,6 1021,5
18 Contra Coronel 02-05-2026 04:15 -0,5 99,9 0 0 336 0,6 1021,7
17 Contra Coronel 02-05-2026 04:00 -0,2 99,8 0 0 336 0,6 1021,9
16 Contra Coronel 02-05-2026 03:45 0,1 99,8 0 0 336 0,6 1022,1
15 Contra Coronel 02-05-2026 03:30 -0,1 99,8 0 0 336 0,6 1022,2
14 Contra Coronel 02-05-2026 03:15 0,2 99,7 0 0 336 0,6 1022,4
13 Contra Coronel 02-05-2026 03:00 0,1 99,7 0 0 336 0,6 1022,5
12 Contra Coronel 02-05-2026 02:45 0 99,7 0 0 336 0,6 1022,7
11 Contra Coronel 02-05-2026 02:30 0,3 99,6 0 0 336 0,6 1022,9
10 Contra Coronel 02-05-2026 02:15 -0,1 99,3 0 0 336 0,6 1023
9 Contra Coronel 02-05-2026 02:00 0,1 99,1 0 0 336 0,6 1023
8 Contra Coronel 02-05-2026 01:45 0,4 99,3 0 0 336 0,6 1023,2
7 Contra Coronel 02-05-2026 01:30 0,9 99,4 0 0 336 0,6 1023,3
6 Contra Coronel 02-05-2026 01:15 0,5 99,3 0 0,3 336 0,6 1023,3
5 Contra Coronel 02-05-2026 01:00 1,2 99 0 0 336 0,6 1023,2
4 Contra Coronel 02-05-2026 00:45 0,8 99 0 0 336 0,6 1023,5
3 Contra Coronel 02-05-2026 00:30 1,6 98,6 0 0 336 0,6 1023,5
2 Contra Coronel 02-05-2026 00:15 2 98,7 0 0 336 0,6 1023,6
1 Contra Coronel 02-05-2026 00:00 2,5 98,9 0 0 336 0,6 1023,8